Home > Weather > Ulm > Past weeks

Flag for Germany Past Weather in Ulm, Baden-Württemberg, Germany — Yesterday and Last 2 Weeks

Now
75 °F

Thundershowers. Partly sunny.


Feels Like: 78 °F
Forecast: 54 / 75 °F
Wind: 5 mph from Northeast

Location: Laupheim Airport

Current Time: May 27, 2016 at 6:23:12 PM

Latest Report: May 27, 2016 at 5:48 PM


Visibility: N/A

Pressure: 29.95 "Hg

Humidity: 57%

Dew Point: 59 °F

Location of UlmLocation

Past Weather in Ulm — Graph

°F

Ulm Temperature Yesterday

Maximum temperature yesterday: 73 °F (at 4:20 PM)
Minimum temperature yesterday: 48 °F (at 5:20 AM)
Average temperature yesterday: 60 °F

High & Low Weather Summary for the Past Weeks

 TemperatureHumidityPressure
High81 °F (May 22, 2:20 PM)100% (May 12, 7:20 PM)30.18 "Hg (May 12, 7:20 PM)
Low41 °F (May 15, 4:20 AM)30% (May 22, 5:20 PM)29.45 "Hg (May 13, 12:20 AM)
Average53 °F77%29.94 "Hg
* Reported May 12 4:20 PM — May 27 4:20 PM, Ulm, Weather by CustomWeather, © 2016

Note: Actual official high and low records may vary slightly from our data, if they occured in-between our weather recording intervals... More about our weather records

Advertising

Ulm Weather History for the Previous 24 Hours

Scroll right to see more
 ConditionsComfort  
Time TempWeatherWind HumidityBarometerVisibility
4:20 PM
Fri, May 27
73 °FBroken clouds.2 mph57%29.98 "HgN/A
3:20 PM73 °FPartly sunny.2 mph57%29.98 "HgN/A
2:20 PM73 °FPartly sunny.3 mph57%29.98 "HgN/A
1:20 PM72 °FScattered clouds.2 mph65%29.98 "HgN/A
12:20 PM68 °FPartly sunny.2 mph69%30.01 "HgN/A
12:00 PM66 °FPartly sunny.3 mph73%30.01 "HgN/A
11:20 AM64 °FPartly sunny.3 mph73%30.01 "HgN/A
10:20 AM63 °FPartly sunny.5 mph77%30.01 "HgN/A
9:20 AM59 °FPartly sunny.3 mph88%30.01 "HgN/A
8:20 AM57 °FBroken clouds.5 mph88%29.98 "HgN/A
7:20 AM55 °FPartly sunny.3 mph94%29.95 "HgN/A
6:20 AM54 °FPartly cloudy.2 mph94%29.95 "HgN/A
5:20 AM54 °FPartly cloudy.5 mph94%29.95 "HgN/A
4:20 AM54 °FPassing clouds.1 mph94%29.95 "HgN/A
3:20 AM54 °FPassing clouds.3 mph94%29.95 "HgN/A
2:20 AM55 °FPassing clouds.2 mph88%29.95 "HgN/A
1:20 AM55 °FPassing clouds.3 mph88%29.98 "HgN/A
12:20 AM57 °FPassing clouds.1 mph82%29.98 "HgN/A
11:20 PM
Thu, May 26
59 °FPassing clouds.3 mph77%29.98 "HgN/A
10:20 PM61 °FPassing clouds.2 mph72%29.98 "HgN/A
9:20 PM64 °FPartly sunny.5 mph64%29.98 "HgN/A
8:20 PM64 °FPartly sunny.5 mph68%29.98 "HgN/A
7:20 PM66 °FBroken clouds.5 mph60%29.98 "HgN/A
6:20 PM66 °FBroken clouds.6 mph64%29.98 "HgN/A
Weather by CustomWeather, © 2016

See weather overviewHow to use our weather pages